When you browse on this site, cookies collect data to enhance your experience and personalize the content and advertising you see.
Visit our Privacy Policy to learn more. By continuing to use the site, you agree to this use of cookies and data.
  • In Lithuania
  • List of Countries
  • For 7 days
  • Water Temperature
  • Satellite Maps
  • Weather Map
  • Weather Widgets
  • user-avatar
    Login

    Hourly Weather Volokytyne

    Today, 27 March, Wednesday

    Time Temperature Precipitation Wind Pressure Humidity
    00:00 +2°C° 0 mm 1 mps 746 mmHg 72%
    01:00 +2°C° 0 mm 1 mps 746 mmHg 71%
    02:00 0°C° 0 mm 0 mps 746 mmHg 71%
    03:00 0°C° 0 mm 0 mps 746 mmHg 70%
    04:00 0°C° 0 mm 0 mps 746 mmHg 70%
    05:00 0°C° 0 mm 0 mps 745 mmHg 69%
    06:00 +2°C° 0 mm 1 mps 746 mmHg 65%
    07:00 +3°C° 0 mm 1 mps 746 mmHg 62%
    08:00 +4°C° 0 mm 1 mps 746 mmHg 58%
    09:00 +4°C° 0 mm 2 mps 747 mmHg 53%
    10:00 +5°C° 0 mm 2 mps 747 mmHg 48%
    11:00 +6°C° 0 mm 2 mps 747 mmHg 43%
    12:00 +5°C° 0 mm 3 mps 748 mmHg 42%
    13:00 +7°C° 0 mm 3 mps 748 mmHg 41%
    14:00 +7°C° 0 mm 3 mps 748 mmHg 40%
    15:00 +5°C° 0 mm 3 mps 748 mmHg 43%
    16:00 +5°C° 0 mm 3 mps 749 mmHg 45%
    17:00 +5°C° 0 mm 3 mps 749 mmHg 47%
    18:00 +3°C° 0 mm 4 mps 750 mmHg 54%
    19:00 +1°C° 0 mm 4 mps 750 mmHg 60%
    20:00 0°C° 0 mm 5 mps 751 mmHg 67%
    21:00 0°C° 0 mm 5 mps 751 mmHg 70%
    22:00 -1°C° 0 mm 5 mps 752 mmHg 73%
    23:00 -1°C° 0 mm 4 mps 752 mmHg 76%

    Tomorrow, 28 March, Thursday

    Time Temperature Precipitation Wind Pressure Humidity
    00:00 -1°C° 0.1 mm 4 mps 752 mmHg 77%
    01:00 -2°C° 0.1 mm 4 mps 753 mmHg 79%
    02:00 -2°C° 0.1 mm 4 mps 753 mmHg 81%
    03:00 -2°C° 0.2 mm 4 mps 753 mmHg 82%
    04:00 -2°C° 0.2 mm 4 mps 754 mmHg 83%
    05:00 -3°C° 0.2 mm 4 mps 754 mmHg 83%
    06:00 -2°C° 0.1 mm 4 mps 755 mmHg 77%
    07:00 -2°C° 0.1 mm 4 mps 755 mmHg 72%
    08:00 -1°C° 0.1 mm 5 mps 756 mmHg 66%
    09:00 0°C° 0 mm 5 mps 756 mmHg 60%
    10:00 +1°C° 0 mm 5 mps 756 mmHg 54%
    11:00 +2°C° 0 mm 5 mps 757 mmHg 49%
    12:00 +2°C° 0 mm 5 mps 757 mmHg 46%
    13:00 +3°C° 0 mm 5 mps 757 mmHg 43%
    14:00 +4°C° 0 mm 4 mps 757 mmHg 41%
    15:00 +4°C° 0 mm 4 mps 757 mmHg 42%
    16:00 +4°C° 0 mm 4 mps 757 mmHg 43%
    17:00 +4°C° 0 mm 4 mps 757 mmHg 44%
    18:00 +2°C° 0 mm 3 mps 757 mmHg 49%
    19:00 +1°C° 0 mm 3 mps 757 mmHg 54%
    20:00 +1°C° 0 mm 2 mps 758 mmHg 58%
    21:00 +1°C° 0 mm 2 mps 758 mmHg 59%
    22:00 0°C° 0 mm 3 mps 758 mmHg 59%
    23:00 -1°C° 0 mm 3 mps 758 mmHg 60%

    Day after tomorrow, 29 March, Friday

    Time Temperature Precipitation Wind Pressure Humidity
    00:00 -1°C° 0 mm 3 mps 758 mmHg 60%
    01:00 -1°C° 0 mm 3 mps 757 mmHg 61%
    02:00 -1°C° 0 mm 3 mps 757 mmHg 61%
    03:00 -1°C° 0 mm 3 mps 757 mmHg 63%
    04:00 -1°C° 0 mm 3 mps 757 mmHg 64%
    05:00 -1°C° 0 mm 3 mps 757 mmHg 66%
    06:00 0°C° 0 mm 3 mps 757 mmHg 66%
    07:00 0°C° 0 mm 4 mps 757 mmHg 66%
    08:00 +1°C° 0 mm 4 mps 757 mmHg 67%
    09:00 +3°C° 0 mm 4 mps 756 mmHg 63%
    10:00 +5°C° 0 mm 5 mps 756 mmHg 59%
    11:00 +6°C° 0 mm 5 mps 756 mmHg 55%
    12:00 +6°C° 0.3 mm 5 mps 755 mmHg 61%
    13:00 +6°C° 0.3 mm 5 mps 755 mmHg 67%
    14:00 +5°C° 0.3 mm 5 mps 755 mmHg 74%
    15:00 +5°C° 0.2 mm 4 mps 754 mmHg 76%
    16:00 +5°C° 0.2 mm 4 mps 754 mmHg 78%
    17:00 +5°C° 0.2 mm 4 mps 754 mmHg 80%
    18:00 +5°C° 0 mm 4 mps 754 mmHg 81%
    19:00 +4°C° 0 mm 3 mps 753 mmHg 83%
    20:00 +3°C° 0 mm 3 mps 753 mmHg 84%
    21:00 +3°C° 0 mm 3 mps 753 mmHg 85%
    22:00 +3°C° 0 mm 3 mps 753 mmHg 86%
    23:00 +2°C° 0 mm 3 mps 753 mmHg 87%

    30 March, Saturday

    Time Temperature Precipitation Wind Pressure Humidity
    00:00 +2°C° 0 mm 3 mps 752 mmHg 88%
    01:00 +2°C° 0 mm 3 mps 752 mmHg 89%
    02:00 +1°C° 0 mm 3 mps 752 mmHg 90%
    03:00 +1°C° 0 mm 3 mps 752 mmHg 92%
    04:00 +1°C° 0 mm 3 mps 752 mmHg 93%
    05:00 +1°C° 0 mm 3 mps 752 mmHg 94%
    06:00 +2°C° 0 mm 3 mps 752 mmHg 93%
    07:00 +3°C° 0 mm 3 mps 752 mmHg 92%
    08:00 +4°C° 0 mm 4 mps 752 mmHg 91%
    09:00 +5°C° 0 mm 4 mps 752 mmHg 87%
    10:00 +6°C° 0 mm 4 mps 752 mmHg 84%
    11:00 +6°C° 0 mm 5 mps 751 mmHg 81%
    12:00 +7°C° 0 mm 5 mps 751 mmHg 77%
    13:00 +8°C° 0 mm 5 mps 751 mmHg 73%
    14:00 +9°C° 0 mm 5 mps 751 mmHg 69%
    15:00 +10°C° 0 mm 4 mps 751 mmHg 68%
    16:00 +11°C° 0 mm 4 mps 751 mmHg 68%
    17:00 +11°C° 0 mm 3 mps 751 mmHg 67%
    18:00 +10°C° 0 mm 3 mps 751 mmHg 72%
    19:00 +9°C° 0 mm 3 mps 751 mmHg 77%
    20:00 +7°C° 0 mm 3 mps 751 mmHg 82%
    21:00 +7°C° 0 mm 3 mps 751 mmHg 83%
    22:00 +6°C° 0 mm 2 mps 751 mmHg 84%
    23:00 +6°C° 0 mm 2 mps 751 mmHg 85%

    31 March, Sunday

    Time Temperature Precipitation Wind Pressure Humidity
    00:00 +5°C° 0 mm 2 mps 751 mmHg 85%
    01:00 +5°C° 0 mm 2 mps 751 mmHg 85%
    02:00 +6°C° 0 mm 1 mps 751 mmHg 85%
    03:00 +5°C° 0 mm 1 mps 751 mmHg 86%
    04:00 +5°C° 0 mm 1 mps 751 mmHg 86%
    05:00 +5°C° 0 mm 1 mps 751 mmHg 86%
    06:00 +6°C° 0 mm 1 mps 751 mmHg 82%
    07:00 +7°C° 0 mm 1 mps 751 mmHg 78%
    08:00 +9°C° 0 mm 1 mps 752 mmHg 74%
    09:00 +9°C° 0 mm 2 mps 751 mmHg 68%
    10:00 +12°C° 0 mm 2 mps 751 mmHg 61%
    11:00 +13°C° 0 mm 3 mps 751 mmHg 54%
    12:00 +14°C° 0 mm 3 mps 751 mmHg 51%
    13:00 +15°C° 0 mm 2 mps 750 mmHg 47%
    14:00 +16°C° 0 mm 2 mps 750 mmHg 43%
    15:00 +16°C° 0 mm 2 mps 750 mmHg 46%
    16:00 +15°C° 0 mm 2 mps 749 mmHg 49%
    17:00 +15°C° 0 mm 2 mps 749 mmHg 51%
    18:00 +14°C° 0 mm 2 mps 749 mmHg 55%
    19:00 +12°C° 0 mm 2 mps 749 mmHg 59%
    20:00 +10°C° 0 mm 2 mps 749 mmHg 63%
    21:00 +9°C° 0 mm 2 mps 749 mmHg 65%
    22:00 +9°C° 0 mm 2 mps 749 mmHg 67%
    23:00 +8°C° 0 mm 2 mps 749 mmHg 69%

    1 April, Monday

    Time Temperature Precipitation Wind Pressure Humidity
    00:00 +8°C° 0 mm 2 mps 749 mmHg 70%
    01:00 +7°C° 0 mm 2 mps 748 mmHg 72%
    02:00 +7°C° 0 mm 3 mps 748 mmHg 73%
    03:00 +7°C° 0 mm 3 mps 748 mmHg 74%
    04:00 +5°C° 0 mm 3 mps 748 mmHg 75%
    05:00 +5°C° 0 mm 3 mps 748 mmHg 76%
    06:00 +7°C° 0 mm 3 mps 748 mmHg 72%
    07:00 +9°C° 0 mm 3 mps 748 mmHg 68%
    08:00 +10°C° 0 mm 3 mps 748 mmHg 64%
    09:00 +12°C° 0 mm 3 mps 748 mmHg 60%
    10:00 +13°C° 0 mm 3 mps 748 mmHg 56%
    11:00 +16°C° 0 mm 3 mps 748 mmHg 52%
    12:00 +14°C° 0 mm 4 mps 748 mmHg 55%
    13:00 +14°C° 0 mm 5 mps 748 mmHg 58%
    14:00 +13°C° 0 mm 6 mps 748 mmHg 61%
    15:00 +11°C° 0 mm 6 mps 748 mmHg 58%
    16:00 +9°C° 0 mm 6 mps 748 mmHg 55%
    17:00 +8°C° 0 mm 6 mps 748 mmHg 52%
    18:00 +7°C° 0 mm 6 mps 749 mmHg 53%
    19:00 +6°C° 0 mm 5 mps 749 mmHg 55%
    20:00 +5°C° 0 mm 5 mps 749 mmHg 57%
    21:00 +3°C° 0 mm 5 mps 750 mmHg 58%
    22:00 +2°C° 0 mm 5 mps 750 mmHg 60%
    23:00 +2°C° 0 mm 5 mps 750 mmHg 62%
    Show more